Time,TemperatureF,DewpointF,PressureIn,WindDirection,WindDirectionDegrees,WindSpeedMPH,WindSpeedGustMPH,Humidity,HourlyPrecipIn,Conditions,Clouds,dailyrainin,SoftwareType,DateUTC
2013-03-28 00:12:00,35.3,32.0,30.13,NNW,343,2.0,-999.0,89,-99.99,,,0.00,weatherlink.com 1.10,2013-03-28 04:12:00,
2013-03-28 00:27:00,35.2,33.0,30.13,NNW,345,4.0,-999.0,90,-99.99,,,0.00,weatherlink.com 1.10,2013-03-28 04:27:00,
2013-03-28 00:42:00,35.3,32.0,30.13,NNW,342,6.0,-999.0,89,-99.99,,,0.00,weatherlink.com 1.10,2013-03-28 04:42:00,
2013-03-28 00:57:00,35.5,33.0,30.13,NNW,348,3.0,-999.0,89,-99.99,,,0.00,weatherlink.com 1.10,2013-03-28 04:57:00,
2013-03-28 01:12:00,35.6,33.0,30.13,NNW,331,4.0,-999.0,90,-99.99,,,0.00,weatherlink.com 1.10,2013-03-28 05:12:00,
2013-03-28 01:27:00,35.5,33.0,30.13,North,360,5.0,-999.0,90,-99.99,,,0.00,weatherlink.com 1.10,2013-03-28 05:27:00,
2013-03-28 01:42:00,35.4,33.0,30.13,NNW,340,3.0,-999.0,91,-99.99,,,0.00,weatherlink.com 1.10,2013-03-28 05:42:00,
2013-03-28 01:57:00,35.4,33.0,30.13,NNW,337,3.0,-999.0,91,-99.99,,,0.00,weatherlink.com 1.10,2013-03-28 05:57:00,
2013-03-28 02:12:00,35.3,33.0,30.13,NW,304,5.0,-999.0,91,-99.99,,,0.00,weatherlink.com 1.10,2013-03-28 06:12:00,
2013-03-28 02:27:00,35.4,33.0,30.13,WNW,296,6.0,-999.0,91,-99.99,,,0.00,weatherlink.com 1.10,2013-03-28 06:27:00,
2013-03-28 02:42:00,35.5,33.0,30.13,WNW,303,5.0,-999.0,91,-99.99,,,0.00,weatherlink.com 1.10,2013-03-28 06:42:00,
2013-03-28 02:57:00,35.6,34.0,30.13,NW,304,4.0,-999.0,92,-99.99,,,0.00,weatherlink.com 1.10,2013-03-28 06:57:00,
2013-03-28 03:12:00,35.6,34.0,30.13,WNW,292,3.0,-999.0,92,-99.99,,,0.00,weatherlink.com 1.10,2013-03-28 07:12:00,
2013-03-28 03:27:00,35.6,34.0,30.13,NW,304,6.0,-999.0,92,-99.99,,,0.00,weatherlink.com 1.10,2013-03-28 07:27:00,
2013-03-28 03:42:00,35.7,34.0,30.13,WNW,294,6.0,-999.0,92,-99.99,,,0.00,weatherlink.com 1.10,2013-03-28 07:42:00,
2013-03-28 03:57:00,35.7,33.0,30.13,NW,309,4.0,-999.0,91,-99.99,,,0.00,weatherlink.com 1.10,2013-03-28 07:57:00,
2013-03-28 04:12:00,35.7,33.0,30.14,WNW,302,5.0,-999.0,91,-99.99,,,0.00,weatherlink.com 1.10,2013-03-28 08:12:00,
2013-03-28 04:27:00,35.6,34.0,30.14,WNW,298,5.0,-999.0,92,-99.99,,,0.00,weatherlink.com 1.10,2013-03-28 08:27:00,
2013-03-28 04:42:00,35.7,33.0,30.14,NW,306,6.0,-999.0,91,-99.99,,,0.00,weatherlink.com 1.10,2013-03-28 08:42:00,
2013-03-28 04:57:00,35.7,33.0,30.14,NW,306,4.0,-999.0,91,-99.99,,,0.00,weatherlink.com 1.10,2013-03-28 08:57:00,
2013-03-28 05:12:00,35.8,34.0,30.14,WNW,294,5.0,-999.0,91,-99.99,,,0.00,weatherlink.com 1.10,2013-03-28 09:12:00,
2013-03-28 05:27:00,35.8,34.0,30.14,WNW,299,7.0,-999.0,91,-99.99,,,0.00,weatherlink.com 1.10,2013-03-28 09:27:00,
2013-03-28 05:42:00,35.7,33.0,30.14,NW,306,5.0,-999.0,91,-99.99,,,0.00,weatherlink.com 1.10,2013-03-28 09:42:00,
2013-03-28 05:57:00,35.6,34.0,30.14,WNW,300,7.0,-999.0,92,-99.99,,,0.00,weatherlink.com 1.10,2013-03-28 09:57:00,
2013-03-28 06:12:00,35.6,34.0,30.15,NW,309,5.0,-999.0,92,-99.99,,,0.00,weatherlink.com 1.10,2013-03-28 10:12:00,
2013-03-28 06:28:00,35.6,34.0,30.15,WNW,296,8.0,-999.0,92,-99.99,,,0.00,weatherlink.com 1.10,2013-03-28 10:28:00,
2013-03-28 06:43:00,35.6,34.0,30.16,NW,308,6.0,-999.0,92,-99.99,,,0.00,weatherlink.com 1.10,2013-03-28 10:43:00,
2013-03-28 06:58:00,35.6,34.0,30.16,NW,304,5.0,-999.0,92,-99.99,,,0.00,weatherlink.com 1.10,2013-03-28 10:58:00,
2013-03-28 07:13:00,35.6,34.0,30.16,WNW,302,6.0,-999.0,93,-99.99,,,0.00,weatherlink.com 1.10,2013-03-28 11:13:00,
2013-03-28 07:28:00,35.5,34.0,30.17,NW,308,5.0,-999.0,93,-99.99,,,0.00,weatherlink.com 1.10,2013-03-28 11:28:00,
2013-03-28 07:43:00,35.7,34.0,30.18,WNW,288,6.0,-999.0,92,-99.99,,,0.00,weatherlink.com 1.10,2013-03-28 11:43:00,
2013-03-28 07:58:00,35.9,34.0,30.18,NW,304,8.0,-999.0,92,-99.99,,,0.00,weatherlink.com 1.10,2013-03-28 11:58:00,
2013-03-28 08:13:00,36.2,34.0,30.18,WNW,301,6.0,-999.0,92,-99.99,,,0.00,weatherlink.com 1.10,2013-03-28 12:13:00,
2013-03-28 08:28:00,36.6,34.0,30.19,WNW,298,7.0,-999.0,91,-99.99,,,0.00,weatherlink.com 1.10,2013-03-28 12:28:00,
2013-03-28 08:43:00,37.0,35.0,30.18,NW,305,6.0,-999.0,91,-99.99,,,0.00,weatherlink.com 1.10,2013-03-28 12:43:00,
2013-03-28 08:58:00,37.3,35.0,30.19,NW,304,5.0,-999.0,90,-99.99,,,0.00,weatherlink.com 1.10,2013-03-28 12:58:00,
2013-03-28 09:13:00,37.6,35.0,30.19,WNW,295,4.0,-999.0,91,-99.99,,,0.00,weatherlink.com 1.10,2013-03-28 13:13:00,
2013-03-28 09:28:00,37.9,35.0,30.20,West,275,9.0,-999.0,90,-99.99,,,0.00,weatherlink.com 1.10,2013-03-28 13:28:00,
2013-03-28 09:43:00,38.1,35.0,30.20,WNW,290,6.0,-999.0,89,-99.99,,,0.00,weatherlink.com 1.10,2013-03-28 13:43:00,
2013-03-28 09:58:00,38.6,36.0,30.20,WNW,288,7.0,-999.0,89,-99.99,,,0.00,weatherlink.com 1.10,2013-03-28 13:58:00,
2013-03-28 10:13:00,38.9,36.0,30.20,NNW,333,6.0,-999.0,88,-99.99,,,0.00,weatherlink.com 1.10,2013-03-28 14:13:00,
2013-03-28 10:28:00,39.3,36.0,30.21,NW,305,10.0,-999.0,88,-99.99,,,0.00,weatherlink.com 1.10,2013-03-28 14:28:00,
2013-03-28 10:43:00,39.3,36.0,30.21,West,280,8.0,-999.0,88,-99.99,,,0.00,weatherlink.com 1.10,2013-03-28 14:43:00,
2013-03-28 10:58:00,39.4,36.0,30.21,WNW,297,7.0,-999.0,87,-99.99,,,0.00,weatherlink.com 1.10,2013-03-28 14:58:00,
2013-03-28 11:13:00,40.0,36.0,30.22,NW,318,8.0,-999.0,86,-99.99,,,0.00,weatherlink.com 1.10,2013-03-28 15:13:00,
2013-03-28 11:28:00,40.6,37.0,30.22,WNW,301,10.0,-999.0,85,-99.99,,,0.00,weatherlink.com 1.10,2013-03-28 15:28:00,
2013-03-28 11:43:00,40.2,36.0,30.22,North,11,5.0,-999.0,85,-99.99,,,0.00,weatherlink.com 1.10,2013-03-28 15:43:00,
2013-03-28 11:58:00,41.0,36.0,30.22,WNW,291,4.0,-999.0,82,-99.99,,,0.00,weatherlink.com 1.10,2013-03-28 15:58:00,
2013-03-28 12:13:00,41.0,36.0,30.22,NW,308,3.0,-999.0,83,-99.99,,,0.00,weatherlink.com 1.10,2013-03-28 16:13:00,
2013-03-28 12:28:00,41.2,36.0,30.22,West,277,9.0,-999.0,82,-99.99,,,0.00,weatherlink.com 1.10,2013-03-28 16:28:00,
2013-03-28 12:43:00,41.2,36.0,30.22,WNW,286,7.0,-999.0,82,-99.99,,,0.00,weatherlink.com 1.10,2013-03-28 16:43:00,
2013-03-28 12:58:00,41.3,36.0,30.22,WNW,290,8.0,-999.0,81,-99.99,,,0.00,weatherlink.com 1.10,2013-03-28 16:58:00,
2013-03-28 13:13:00,41.8,36.0,30.22,WNW,288,11.0,-999.0,81,-99.99,,,0.00,weatherlink.com 1.10,2013-03-28 17:13:00,
2013-03-28 13:28:00,42.4,36.0,30.22,WNW,303,9.0,-999.0,79,-99.99,,,0.00,weatherlink.com 1.10,2013-03-28 17:28:00,
2013-03-28 13:43:00,42.7,36.0,30.22,WNW,302,8.0,-999.0,78,-99.99,,,0.01,weatherlink.com 1.10,2013-03-28 17:43:00,
2013-03-28 13:58:00,43.5,36.0,30.22,WNW,298,7.0,-999.0,75,-99.99,,,0.01,weatherlink.com 1.10,2013-03-28 17:58:00,
2013-03-28 14:13:00,43.4,36.0,30.22,WNW,284,10.0,-999.0,74,-99.99,,,0.01,weatherlink.com 1.10,2013-03-28 18:13:00,
2013-03-28 14:28:00,43.6,36.0,30.22,WNW,291,7.0,-999.0,74,-99.99,,,0.01,weatherlink.com 1.10,2013-03-28 18:28:00,
2013-03-28 14:43:00,43.8,35.0,30.22,West,275,8.0,-999.0,72,-99.99,,,0.01,weatherlink.com 1.10,2013-03-28 18:43:00,
2013-03-28 14:58:00,44.4,36.0,30.22,NW,314,12.0,-999.0,72,-99.99,,,0.01,weatherlink.com 1.10,2013-03-28 18:58:00,
2013-03-28 15:13:00,43.9,35.0,30.22,West,269,10.0,-999.0,72,-99.99,,,0.01,weatherlink.com 1.10,2013-03-28 19:13:00,
2013-03-28 15:28:00,43.2,35.0,30.21,WNW,296,9.0,-999.0,72,-99.99,,,0.01,weatherlink.com 1.10,2013-03-28 19:28:00,
2013-03-28 15:43:00,43.3,35.0,30.21,West,281,7.0,-999.0,72,-99.99,,,0.01,weatherlink.com 1.10,2013-03-28 19:43:00,
2013-03-28 15:58:00,43.2,34.0,30.21,WNW,303,8.0,-999.0,70,-99.99,,,0.01,weatherlink.com 1.10,2013-03-28 19:58:00,
2013-03-28 16:13:00,43.3,33.0,30.21,WNW,292,8.0,-999.0,67,-99.99,,,0.01,weatherlink.com 1.10,2013-03-28 20:13:00,
2013-03-28 16:28:00,43.5,33.0,30.21,WNW,302,6.0,-999.0,66,-99.99,,,0.01,weatherlink.com 1.10,2013-03-28 20:28:00,
2013-03-28 16:44:00,43.3,32.0,30.22,WNW,298,8.0,-999.0,65,-99.99,,,0.01,weatherlink.com 1.10,2013-03-28 20:44:00,
2013-03-28 16:59:00,43.4,31.0,30.22,WNW,300,8.0,-999.0,63,-99.99,,,0.01,weatherlink.com 1.10,2013-03-28 20:59:00,
2013-03-28 17:14:00,43.2,32.0,30.22,WNW,297,6.0,-999.0,65,-99.99,,,0.01,weatherlink.com 1.10,2013-03-28 21:14:00,
2013-03-28 17:29:00,42.9,32.0,30.22,WNW,296,9.0,-999.0,65,-99.99,,,0.01,weatherlink.com 1.10,2013-03-28 21:29:00,
2013-03-28 17:44:00,42.9,32.0,30.22,West,280,4.0,-999.0,66,-99.99,,,0.01,weatherlink.com 1.10,2013-03-28 21:44:00,
2013-03-28 17:59:00,42.8,32.0,30.22,WNW,294,10.0,-999.0,66,-99.99,,,0.01,weatherlink.com 1.10,2013-03-28 21:59:00,
2013-03-28 18:14:00,42.8,32.0,30.22,WNW,290,7.0,-999.0,65,-99.99,,,0.01,weatherlink.com 1.10,2013-03-28 22:14:00,
2013-03-28 18:29:00,42.7,32.0,30.23,WNW,283,6.0,-999.0,65,-99.99,,,0.01,weatherlink.com 1.10,2013-03-28 22:29:00,
2013-03-28 18:44:00,42.7,31.0,30.23,WNW,286,7.0,-999.0,63,-99.99,,,0.01,weatherlink.com 1.10,2013-03-28 22:44:00,
2013-03-28 18:59:00,42.5,32.0,30.23,West,271,7.0,-999.0,67,-99.99,,,0.01,weatherlink.com 1.10,2013-03-28 22:59:00,
2013-03-28 19:14:00,42.2,32.0,30.24,West,279,3.0,-999.0,67,-99.99,,,0.01,weatherlink.com 1.10,2013-03-28 23:14:00,
2013-03-28 19:29:00,42.1,32.0,30.24,West,278,4.0,-999.0,67,-99.99,,,0.01,weatherlink.com 1.10,2013-03-28 23:29:00,
2013-03-28 19:44:00,42.2,33.0,30.24,WSW,245,4.0,-999.0,70,-99.99,,,0.01,weatherlink.com 1.10,2013-03-28 23:44:00,
2013-03-28 19:59:00,41.9,35.0,30.24,WSW,252,2.0,-999.0,76,-99.99,,,0.01,weatherlink.com 1.10,2013-03-28 23:59:00,
2013-03-28 20:14:00,41.6,35.0,30.25,WSW,250,4.0,-999.0,78,-99.99,,,0.01,weatherlink.com 1.10,2013-03-29 00:14:00,
2013-03-28 20:29:00,41.2,36.0,30.25,WSW,254,3.0,-999.0,80,-99.99,,,0.01,weatherlink.com 1.10,2013-03-29 00:29:00,
2013-03-28 20:44:00,40.8,35.0,30.25,WSW,254,3.0,-999.0,81,-99.99,,,0.01,weatherlink.com 1.10,2013-03-29 00:44:00,
2013-03-28 20:59:00,40.9,35.0,30.26,WSW,254,2.0,-999.0,80,-99.99,,,0.01,weatherlink.com 1.10,2013-03-29 00:59:00,
2013-03-28 21:14:00,41.0,35.0,30.26,West,270,5.0,-999.0,78,-99.99,,,0.01,weatherlink.com 1.10,2013-03-29 01:14:00,
2013-03-28 21:29:00,40.7,34.0,30.26,West,259,3.0,-999.0,78,-99.99,,,0.01,weatherlink.com 1.10,2013-03-29 01:29:00,
2013-03-28 21:44:00,40.9,34.0,30.26,WSW,252,5.0,-999.0,77,-99.99,,,0.01,weatherlink.com 1.10,2013-03-29 01:44:00,
2013-03-28 21:59:00,40.9,34.0,30.26,SW,221,1.0,-999.0,77,-99.99,,,0.01,weatherlink.com 1.10,2013-03-29 01:59:00,
2013-03-28 22:14:00,40.9,34.0,30.26,WSW,255,7.0,-999.0,76,-99.99,,,0.01,weatherlink.com 1.10,2013-03-29 02:14:00,
2013-03-28 22:29:00,40.7,34.0,30.27,West,267,2.0,-999.0,78,-99.99,,,0.01,weatherlink.com 1.10,2013-03-29 02:29:00,
2013-03-28 22:44:00,40.7,34.0,30.27,West,276,8.0,-999.0,77,-99.99,,,0.01,weatherlink.com 1.10,2013-03-29 02:44:00,
2013-03-28 22:59:00,40.3,34.0,30.27,West,265,6.0,-999.0,78,-99.99,,,0.01,weatherlink.com 1.10,2013-03-29 02:59:00,
2013-03-28 23:14:00,39.9,35.0,30.27,West,277,9.0,-999.0,81,-99.99,,,0.01,weatherlink.com 1.10,2013-03-29 03:14:00,
2013-03-28 23:29:00,39.7,35.0,30.27,West,279,6.0,-999.0,83,-99.99,,,0.01,weatherlink.com 1.10,2013-03-29 03:29:00,
2013-03-28 23:44:00,39.4,35.0,30.27,West,269,8.0,-999.0,84,-99.99,,,0.01,weatherlink.com 1.10,2013-03-29 03:44:00,
2013-03-28 23:59:00,39.3,35.0,30.27,WNW,287,8.0,-999.0,84,-99.99,,,0.00,weatherlink.com 1.10,2013-03-29 03:59:00,